Home > Weather > Kashgar > Past weeks

Flag for China Past Weather in Kashgar, Xinjiang, China — Yesterday and Last 2 Weeks

Now
70 °F

Sprinkles. Partly sunny.


Feels Like: 70 °F
Forecast: 72 / 81 °F
Wind: 8 mph from North

Location: Kashi Airport

Current Time: Jul 31, 2016 at 6:49:17 AM

Latest Report: Jul 31, 2016 at 6:00 AM


Visibility: N/A

Pressure: 29.83 "Hg (25.65 "Hg at 1298m altitude)

Humidity: 64%

Dew Point: 57 °F

Location of KashgarLocation

Past Weather in Kashgar — Graph

°F

Kashgar Temperature Yesterday

Maximum temperature yesterday: 93 °F (at 3:00 PM)
Minimum temperature yesterday: 75 °F (at 8:00 AM)
Average temperature yesterday: 85 °F

High & Low Weather Summary for the Past Weeks

 TemperatureHumidityPressure
High99 °F (Jul 27, 5:00 PM)69% (Jul 22, 10:00 AM)30.01 "Hg (Jul 22, 10:00 AM)
Low70 °F (Jul 17, 6:00 AM)11% (Jul 27, 12:00 PM)29.62 "Hg (Jul 18, 7:00 PM)
Average84 °F27%29.81 "Hg
* Reported Jul 16 5:00 AM — Jul 31 5:00 AM, Kashgar, Weather by CustomWeather, © 2016

Note: Actual official high and low records may vary slightly from our data, if they occured in-between our weather recording intervals... More about our weather records

Advertising

Kashgar Weather History for the Previous 24 Hours

Scroll right to see more
 ConditionsComfort  
Time TempWeatherWind HumidityBarometerVisibility
5:00 AM
Sun, Jul 31
77 °FPassing clouds.8 mph36%29.80 "HgN/A
4:00 AM79 °FSandstorm.8 mph34%29.77 "Hg6 mi
3:00 AM81 °FClear.6 mph37%29.80 "Hg10 mi
2:00 AM82 °FClear.8 mph28%29.77 "Hg10 mi
1:00 AM84 °FClear.10 mph23%29.77 "Hg10 mi
12:00 AM84 °FPassing clouds.10 mph22%29.74 "HgN/A
11:00 PM
Sat, Jul 30
86 °FPassing clouds.10 mph20%29.74 "HgN/A
10:00 PM88 °FPassing clouds.3 mph24%29.71 "HgN/A
9:00 PM90 °FPassing clouds.6 mph22%29.71 "HgN/A
8:00 PM91 °FPassing clouds.10 mph21%29.68 "HgN/A
7:00 PM91 °FPassing clouds.13 mph18%29.68 "HgN/A
6:00 PM91 °FPassing clouds.13 mph20%29.68 "HgN/A
5:00 PM93 °FPassing clouds.13 mph17%29.71 "HgN/A
4:00 PM93 °FPassing clouds.13 mph17%29.71 "HgN/A
3:00 PM93 °FPassing clouds.10 mph13%29.74 "HgN/A
2:00 PM91 °FPassing clouds.10 mph14%29.74 "HgN/A
1:00 PM90 °FSunny.6 mph13%29.77 "Hg10 mi
12:00 PM86 °FPassing clouds.8 mph14%29.77 "HgN/A
11:00 AM84 °FPassing clouds.13 mph18%29.77 "HgN/A
10:00 AM79 °FSunny.17 mph26%29.77 "Hg10 mi
9:00 AM77 °FSunny.13 mph24%29.77 "Hg10 mi
8:00 AM75 °FSunny.8 mph25%29.74 "Hg10 mi
7:00 AM77 °FScattered clouds.10 mph24%29.74 "HgN/A
6:00 AM79 °FScattered clouds.13 mph23%29.74 "HgN/A
Weather by CustomWeather, © 2016

See weather overviewHow to use our weather pages